User: anonymous   Login
Location: Brno
(49.2000°N, 16.6330°E)
Time: 22:32:55
(UTC+02:00)
Language:

CARTOSAT-1 - Orbit

View from above orbital plane
View from above orbital plane
View from above satellite
View from above satellite

Ground track
Ground track

The orbit data is extracted from the following two-line orbital elements,

1 28649U 05017A   18114.51058003  .00000146  00000-0  24091-4 0  9990
2 28649  97.8252 188.4357 0003492  96.8893 263.2727 14.83470201702133
Epoch (UTC): 24 April 2018 12:15:14
Eccentricity: 0.0003492
inclination: 97.8252°
perigee height: 616 km
apogee height: 621 km
right ascension of ascending node: 188.4357°
argument of perigee: 96.8893°
revolutions per day: 14.83470201
mean anomaly at epoch: 263.2727°
orbit number at epoch: 70213

The dashed part of the orbit path shows where the satellite is in the earth's shadow,  

DLR